Regional Weather Roundup
Issued by NWS

Home | Current Version | Previous Version | Text Only | Print | Product List | Glossary Off
Versions: 1 2 3 4 5 6 7 8 9 10 11 12 13 14 15 16 17 18 19 20 21 22 23 24 25 26 27 28 29 30 31 32 33 34 35 36 37 38 39 40 41 42 43 44 45 46 47 48 49 50

000
ASUS43 KBIS 240402
RWRND

NORTH DAKOTA REGIONAL WEATHER ROUNDUP
NATIONAL WEATHER SERVICE BISMARCK ND
1100 PM CDT TUE MAY 23 2017

NOTE: "FAIR" INDICATES FEW OR NO CLOUDS BELOW 12,000 FEET WITH NO
SIGNIFICANT WEATHER AND/OR OBSTRUCTIONS TO VISIBILITY.


NDZ001>003-009>011-017-240500-
NORTHWEST NORTH DAKOTA

CITY           SKY/WX    TMP DP  RH WIND       PRES   REMARKS
WILLISTON      FAIR      61  37  41 SE10      29.89F
MINOT          FAIR      54  36  50 SE3       29.92F
MINOT AFB      CLEAR     55  37  49 S7        29.91F
$$

NDZ018>021-031>035-040>046-240500-
SOUTHWEST NORTH DAKOTA

CITY           SKY/WX    TMP DP  RH WIND       PRES   REMARKS
BISMARCK       FAIR      48  37  65 SE3       29.97F
DICKINSON      FAIR      46  32  58 SE8       29.93F
GARRISON         N/A     50  36  58 SE5       29.94F
HETTINGER ARPT PTCLDY    47  33  58 E7        29.97F
$$

NDZ004>008-012>016-024-026-027-054-240500-
NORTHEAST NORTH DAKOTA

CITY           SKY/WX    TMP DP  RH WIND       PRES   REMARKS
GRAND FORKS    PTCLDY    46  42  86 SW6       29.94F
GRND FRKS AFB  CLEAR     44  41  91 CALM      29.94F
DEVILS LAKE    FAIR      49  41  74 SW3       29.95F
$$

NDZ022-023-025-028>030-036>039-047>053-240500-
SOUTHEAST NORTH DAKOTA

CITY           SKY/WX    TMP DP  RH WIND       PRES   REMARKS
FARGO          CLEAR     50  43  77 N7        29.93F
JAMESTOWN      FAIR      44  39  82 N3        29.95F
$$





USA.gov is the U.S. government's official web portal to all federal, state and local government web resources and services.